| time (UTC) | temp C | wind direction | speed KPH | gust KPH | rain 1hr cm | rain 24hr cm | rain mn cm | humidity % | barometer mb |
| 20260507212027 | 18 | 172 | 8.0 | 17.7 | 0.00 | 0.00 | 0.00 | 73 | 1009.2 |
| 20260507211520 | 18 | 178 | 8.0 | 16.1 | 0.00 | 0.00 | 0.00 | 72 | 1009.2 |
| 20260507211019 | 18 | 173 | 9.7 | 16.1 | 0.00 | 0.00 | 0.00 | 72 | 1009.0 |
| 20260507210518 | 18 | 172 | 9.7 | 17.7 | 0.00 | 0.00 | 0.00 | 72 | 1009.1 |
| 20260507210018 | 19 | 172 | 9.7 | 17.7 | 0.00 | 0.00 | 0.00 | 72 | 1009.0 |
| 20260507205517 | 19 | 180 | 8.0 | 16.1 | 0.00 | 0.00 | 0.00 | 72 | 1008.7 |
| 20260507205020 | 19 | 181 | 6.4 | 11.3 | 0.00 | 0.00 | 0.00 | 72 | 1008.5 |
| 20260507204518 | 19 | 172 | 8.0 | 12.9 | 0.00 | 0.00 | 0.00 | 72 | 1008.4 |
| 20260507204019 | 19 | 169 | 8.0 | 14.5 | 0.00 | 0.00 | 0.00 | 72 | 1008.4 |
| 20260507203522 | 19 | 183 | 8.0 | 14.5 | 0.00 | 0.00 | 0.00 | 71 | 1008.3 |
| 20260507203025 | 19 | 175 | 9.7 | 17.7 | 0.00 | 0.00 | 0.00 | 71 | 1008.4 |
| 20260507202516 | 19 | 174 | 8.0 | 16.1 | 0.00 | 0.00 | 0.00 | 71 | 1008.4 |
| 20260507202039 | 19 | 178 | 9.7 | 16.1 | 0.00 | 0.00 | 0.00 | 71 | 1008.3 |
| 20260507201519 | 19 | 177 | 11.3 | 17.7 | 0.00 | 0.00 | 0.00 | 71 | 1008.3 |
| 20260507201019 | 19 | 175 | 11.3 | 19.3 | 0.00 | 0.00 | 0.00 | 70 | 1008.5 |
| 20260507200525 | 19 | 174 | 11.3 | 19.3 | 0.00 | 0.00 | 0.00 | 70 | 1008.6 |
| 20260507200026 | 19 | 174 | 11.3 | 22.5 | 0.00 | 0.00 | 0.00 | 70 | 1008.6 |
| 20260507195524 | 19 | 182 | 9.7 | 17.7 | 0.00 | 0.00 | 0.00 | 70 | 1008.4 |
| 20260507195024 | 19 | 177 | 11.3 | 17.7 | 0.00 | 0.00 | 0.00 | 69 | 1008.3 |
| 20260507194524 | 19 | 172 | 9.7 | 16.1 | 0.00 | 0.00 | 0.00 | 69 | 1008.3 |
| 20260507194044 | 19 | 180 | 11.3 | 22.5 | 0.00 | 0.00 | 0.00 | 69 | 1008.3 |
| 20260507193519 | 19 | 176 | 9.7 | 17.7 | 0.00 | 0.00 | 0.00 | 68 | 1008.3 |
| 20260507193023 | 19 | 177 | 11.3 | 19.3 | 0.00 | 0.00 | 0.00 | 68 | 1008.3 |
| 20260507192546 | 19 | 184 | 9.7 | 16.1 | 0.00 | 0.00 | 0.00 | 68 | 1008.1 |
| 20260507192024 | 19 | 175 | 9.7 | 12.9 | 0.00 | 0.00 | 0.00 | 68 | 1008.2 |
| 20260507191525 | 19 | 171 | 11.3 | 27.4 | 0.00 | 0.00 | 0.00 | 68 | 1008.2 |
| 20260507191028 | 19 | 179 | 11.3 | 17.7 | 0.00 | 0.00 | 0.00 | 68 | 1008.3 |
| 20260507190549 | 19 | 183 | 11.3 | 19.3 | 0.00 | 0.00 | 0.00 | 68 | 1008.2 |
| 20260507190020 | 19 | 170 | 9.7 | 17.7 | 0.00 | 0.00 | 0.00 | 68 | 1008.1 |
| 20260507185523 | 19 | 179 | 11.3 | 17.7 | 0.00 | 0.00 | 0.00 | 68 | 1007.9 |
| 20260507185024 | 19 | 180 | 9.7 | 17.7 | 0.00 | 0.00 | 0.00 | 68 | 1007.9 |
| 20260507184544 | 19 | 179 | 14.5 | 25.7 | 0.00 | 0.00 | 0.00 | 68 | 1007.8 |
| 20260507184017 | 19 | 170 | 16.1 | 22.5 | 0.00 | 0.00 | 0.00 | 68 | 1007.6 |
| 20260507183522 | 19 | 174 | 14.5 | 20.9 | 0.00 | 0.00 | 0.00 | 68 | 1007.6 |
| 20260507183022 | 19 | 176 | 11.3 | 22.5 | 0.00 | 0.00 | 0.00 | 68 | 1007.5 |
| 20260507182539 | 19 | 181 | 14.5 | 20.9 | 0.00 | 0.00 | 0.00 | 68 | 1007.4 |
| 20260507182022 | 19 | 176 | 14.5 | 22.5 | 0.00 | 0.00 | 0.00 | 68 | 1007.5 |
| 20260507181521 | 19 | 174 | 14.5 | 20.9 | 0.00 | 0.00 | 0.00 | 68 | 1007.5 |
| 20260507181025 | 19 | 184 | 12.9 | 24.1 | 0.00 | 0.00 | 0.00 | 69 | 1007.6 |
| 20260507180601 | 19 | 174 | 14.5 | 22.5 | 0.00 | 0.00 | 0.00 | 69 | 1007.6 |
| 20260507180025 | 19 | 171 | 14.5 | 27.4 | 0.00 | 0.00 | 0.00 | 70 | 1007.5 |
| 20260507175521 | 19 | 174 | 16.1 | 24.1 | 0.00 | 0.00 | 0.00 | 70 | 1007.6 |
| 20260507175017 | 19 | 174 | 14.5 | 20.9 | 0.00 | 0.00 | 0.00 | 69 | 1007.6 |
| 20260507174527 | 19 | 169 | 14.5 | 22.5 | 0.00 | 0.00 | 0.00 | 69 | 1007.8 |
| 20260507174023 | 19 | 175 | 17.7 | 27.4 | 0.00 | 0.00 | 0.00 | 69 | 1007.7 |
| 20260507173526 | 19 | 174 | 16.1 | 27.4 | 0.00 | 0.00 | 0.00 | 69 | 1007.7 |
| 20260507173021 | 19 | 170 | 17.7 | 27.4 | 0.00 | 0.00 | 0.00 | 69 | 1007.6 |
| 20260507172521 | 19 | 170 | 14.5 | 20.9 | 0.00 | 0.00 | 0.00 | 69 | 1007.6 |
| 20260507172026 | 19 | 178 | 17.7 | 30.6 | 0.00 | 0.00 | 0.00 | 69 | 1007.5 |
| 20260507171527 | 19 | 178 | 14.5 | 24.1 | 0.00 | 0.00 | 0.00 | 68 | 1007.4 |
| 20260507171019 | 19 | 179 | 14.5 | 25.7 | 0.00 | 0.00 | 0.00 | 68 | 1007.4 |
| 20260507170528 | 20 | 173 | 14.5 | 22.5 | 0.00 | 0.00 | 0.00 | 68 | 1007.4 |
| 20260507170016 | 20 | 184 | 17.7 | 25.7 | 0.00 | 0.00 | 0.00 | 68 | 1007.1 |
| 20260507165526 | 20 | 178 | 19.3 | 30.6 | 0.00 | 0.00 | 0.00 | 67 | 1007.0 |
| 20260507165018 | 20 | 175 | 17.7 | 29.0 | 0.00 | 0.00 | 0.00 | 67 | 1007.0 |
| 20260507164518 | 20 | 181 | 17.7 | 32.2 | 0.00 | 0.00 | 0.00 | 66 | 1007.0 |
| 20260507164025 | 20 | 170 | 17.7 | 25.7 | 0.00 | 0.00 | 0.00 | 66 | 1007.0 |
| 20260507163522 | 20 | 172 | 19.3 | 27.4 | 0.00 | 0.00 | 0.00 | 66 | 1007.0 |
| 20260507163017 | 20 | 179 | 20.9 | 33.8 | 0.00 | 0.00 | 0.00 | 67 | 1007.0 |
| 20260507162524 | 20 | 186 | 20.9 | 35.4 | 0.00 | 0.00 | 0.00 | 67 | 1007.0 |
| 20260507162043 | 20 | 177 | 19.3 | 30.6 | 0.00 | 0.00 | 0.00 | 67 | 1006.9 |
| 20260507161518 | 20 | 176 | 20.9 | 33.8 | 0.00 | 0.00 | 0.00 | 67 | 1007.0 |
| 20260507161025 | 20 | 186 | 22.5 | 30.6 | 0.00 | 0.00 | 0.00 | 67 | 1007.0 |
| 20260507160521 | 20 | 171 | 25.7 | 38.6 | 0.00 | 0.00 | 0.00 | 66 | 1007.2 |
| 20260507160016 | 20 | 173 | 24.1 | 33.8 | 0.00 | 0.00 | 0.00 | 66 | 1007.2 |
| 20260507155522 | 20 | 177 | 25.7 | 41.8 | 0.00 | 0.00 | 0.00 | 67 | 1007.3 |
| 20260507155023 | 20 | 178 | 25.7 | 32.2 | 0.00 | 0.00 | 0.00 | 66 | 1007.3 |
| 20260507154521 | 20 | 178 | 25.7 | 33.8 | 0.00 | 0.00 | 0.00 | 66 | 1007.3 |
| 20260507154021 | 20 | 168 | 29.0 | 40.2 | 0.00 | 0.00 | 0.00 | 66 | 1007.2 |
| 20260507153518 | 20 | 182 | 29.0 | 38.6 | 0.00 | 0.00 | 0.00 | 65 | 1007.2 |
| 20260507153024 | 20 | 178 | 29.0 | 43.5 | 0.00 | 0.00 | 0.00 | 65 | 1007.2 |
| 20260507152524 | 20 | 179 | 29.0 | 38.6 | 0.00 | 0.00 | 0.00 | 64 | 1007.3 |
| 20260507152027 | 20 | 174 | 27.4 | 40.2 | 0.00 | 0.00 | 0.00 | 64 | 1007.3 |
| 20260507151547 | 20 | 176 | 27.4 | 38.6 | 0.00 | 0.00 | 0.00 | 63 | 1007.2 |
| 20260507151016 | 20 | 181 | 27.4 | 38.6 | 0.00 | 0.00 | 0.00 | 63 | 1007.2 |
| 20260507150543 | 20 | 184 | 25.7 | 35.4 | 0.00 | 0.00 | 0.00 | 64 | 1007.2 |
| 20260507150020 | 20 | 175 | 24.1 | 30.6 | 0.00 | 0.00 | 0.00 | 63 | 1007.4 |
| 20260507145517 | 20 | 179 | 22.5 | 35.4 | 0.00 | 0.00 | 0.00 | 62 | 1007.4 |
| 20260507145023 | 20 | 175 | 29.0 | 40.2 | 0.00 | 0.00 | 0.00 | 62 | 1007.4 |
| 20260507144516 | 20 | 180 | 25.7 | 33.8 | 0.00 | 0.00 | 0.00 | 62 | 1007.3 |
| 20260507144024 | 20 | 182 | 24.1 | 32.2 | 0.00 | 0.00 | 0.00 | 61 | 1007.4 |
| 20260507143518 | 20 | 170 | 27.4 | 38.6 | 0.00 | 0.00 | 0.00 | 61 | 1007.3 |
| 20260507143016 | 20 | 176 | 27.4 | 43.5 | 0.00 | 0.00 | 0.00 | 61 | 1007.5 |
| 20260507142516 | 21 | 177 | 25.7 | 37.0 | 0.00 | 0.00 | 0.00 | 60 | 1007.5 |
| 20260507142026 | 21 | 180 | 25.7 | 35.4 | 0.00 | 0.00 | 0.00 | 60 | 1007.8 |
| 20260507140024 | 21 | 179 | 20.9 | 33.8 | 0.00 | 0.00 | 0.00 | 57 | 1008.1 |
| 20260507135524 | 21 | 179 | 24.1 | 38.6 | 0.00 | 0.00 | 0.00 | 57 | 1008.3 |
| 20260507135026 | 21 | 173 | 27.4 | 41.8 | 0.00 | 0.00 | 0.00 | 57 | 1008.4 |
| 20260507134516 | 21 | 183 | 24.1 | 32.2 | 0.00 | 0.00 | 0.00 | 56 | 1008.3 |
| 20260507134029 | 21 | 180 | 24.1 | 33.8 | 0.00 | 0.00 | 0.00 | 57 | 1008.5 |
| 20260507133519 | 21 | 177 | 24.1 | 37.0 | 0.00 | 0.00 | 0.00 | 58 | 1008.6 |
| 20260507133025 | 21 | 176 | 19.3 | 27.4 | 0.00 | 0.00 | 0.00 | 58 | 1008.6 |
| 20260507132542 | 21 | 177 | 20.9 | 32.2 | 0.00 | 0.00 | 0.00 | 56 | 1008.6 |
| 20260507132024 | 21 | 178 | 22.5 | 33.8 | 0.00 | 0.00 | 0.00 | 56 | 1008.5 |
| 20260507131519 | 22 | 174 | 20.9 | 29.0 | 0.00 | 0.00 | 0.00 | 55 | 1008.4 |
| 20260507131018 | 21 | 167 | 20.9 | 35.4 | 0.00 | 0.00 | 0.00 | 54 | 1008.4 |
| 20260507130526 | 21 | 178 | 22.5 | 40.2 | 0.00 | 0.00 | 0.00 | 54 | 1008.6 |
| 20260507130018 | 21 | 166 | 20.9 | 30.6 | 0.00 | 0.00 | 0.00 | 55 | 1008.6 |
| 20260507125546 | 22 | 176 | 22.5 | 30.6 | 0.00 | 0.00 | 0.00 | 53 | 1008.6 |
| 20260507125036 | 22 | 165 | 20.9 | 33.8 | 0.00 | 0.00 | 0.00 | 51 | 1008.7 |
| 20260507124520 | 22 | 176 | 25.7 | 40.2 | 0.00 | 0.00 | 0.00 | 51 | 1008.9 |
| 20260507124022 | 22 | 168 | 24.1 | 35.4 | 0.00 | 0.00 | 0.00 | 52 | 1009.0 |
| 20260507123524 | 22 | 178 | 20.9 | 41.8 | 0.00 | 0.00 | 0.00 | 53 | 1008.9 |
| 20260507123026 | 22 | 170 | 22.5 | 29.0 | 0.00 | 0.00 | 0.00 | 52 | 1009.0 |
| 20260507122522 | 22 | 176 | 19.3 | 30.6 | 0.00 | 0.00 | 0.00 | 51 | 1008.9 |
| 20260507122023 | 22 | 161 | 20.9 | 30.6 | 0.00 | 0.00 | 0.00 | 49 | 1009.0 |
| 20260507121535 | 22 | 168 | 22.5 | 32.2 | 0.00 | 0.00 | 0.00 | 48 | 1008.9 |
| 20260507121018 | 22 | 178 | 24.1 | 37.0 | 0.00 | 0.00 | 0.00 | 49 | 1008.7 |
| 20260507120522 | 22 | 180 | 19.3 | 27.4 | 0.00 | 0.00 | 0.00 | 48 | 1008.8 |
| 20260507120040 | 22 | 171 | 24.1 | 37.0 | 0.00 | 0.00 | 0.00 | 46 | 1008.6 |
| 20260507115517 | 23 | 173 | 25.7 | 33.8 | 0.00 | 0.00 | 0.00 | 45 | 1008.8 |
| 20260507115017 | 23 | 172 | 22.5 | 33.8 | 0.00 | 0.00 | 0.00 | 46 | 1009.0 |
| 20260507114521 | 23 | 160 | 20.9 | 33.8 | 0.00 | 0.00 | 0.00 | 43 | 1008.9 |
| 20260507114022 | 23 | 174 | 22.5 | 30.6 | 0.00 | 0.00 | 0.00 | 43 | 1008.8 |
| 20260507113517 | 22 | 185 | 24.1 | 35.4 | 0.00 | 0.00 | 0.00 | 44 | 1008.9 |
| 20260507113023 | 22 | 174 | 22.5 | 32.2 | 0.00 | 0.00 | 0.00 | 48 | 1009.1 |
| 20260507112525 | 23 | 171 | 17.7 | 32.2 | 0.00 | 0.00 | 0.00 | 47 | 1009.1 |
| 20260507112018 | 22 | 178 | 17.7 | 25.7 | 0.00 | 0.00 | 0.00 | 45 | 1009.2 |
| 20260507111549 | 22 | 180 | 20.9 | 32.2 | 0.00 | 0.00 | 0.00 | 49 | 1009.3 |
| 20260507111026 | 21 | 171 | 17.7 | 30.6 | 0.00 | 0.00 | 0.00 | 52 | 1009.2 |
| 20260507110525 | 22 | 176 | 20.9 | 32.2 | 0.00 | 0.00 | 0.00 | 50 | 1009.2 |
| 20260507110025 | 22 | 184 | 19.3 | 30.6 | 0.00 | 0.00 | 0.00 | 49 | 1009.1 |
| 20260507105543 | 22 | 181 | 20.9 | 32.2 | 0.00 | 0.00 | 0.00 | 49 | 1009.1 |
| 20260507105044 | 22 | 181 | 19.3 | 25.7 | 0.00 | 0.00 | 0.00 | 47 | 1009.2 |
| 20260507104527 | 23 | 179 | 20.9 | 32.2 | 0.00 | 0.00 | 0.00 | 44 | 1009.3 |
| 20260507103521 | 22 | 171 | 16.1 | 29.0 | 0.00 | 0.00 | 0.00 | 45 | 1009.2 |
| 20260507103046 | 23 | 177 | 19.3 | 32.2 | 0.00 | 0.00 | 0.00 | 42 | 1009.2 |
| 20260507102525 | 23 | 183 | 16.1 | 27.4 | 0.00 | 0.00 | 0.00 | 40 | 1009.2 |
| 20260507102025 | 23 | 182 | 14.5 | 27.4 | 0.00 | 0.00 | 0.00 | 40 | 1009.2 |
| 20260507101522 | 23 | 175 | 16.1 | 25.7 | 0.00 | 0.00 | 0.00 | 40 | 1009.3 |
| 20260507101020 | 23 | 178 | 16.1 | 29.0 | 0.00 | 0.00 | 0.00 | 40 | 1009.3 |
| 20260507100526 | 23 | 171 | 12.9 | 22.5 | 0.00 | 0.00 | 0.00 | 40 | 1009.4 |
| 20260507100025 | 23 | 181 | 16.1 | 22.5 | 0.00 | 0.00 | 0.00 | 41 | 1009.7 |
| 20260507095529 | 23 | 174 | 19.3 | 30.6 | 0.00 | 0.00 | 0.00 | 42 | 1009.6 |
| 20260507095023 | 23 | 170 | 19.3 | 29.0 | 0.00 | 0.00 | 0.00 | 42 | 1009.5 |
| 20260507094519 | 23 | 175 | 16.1 | 25.7 | 0.00 | 0.00 | 0.00 | 41 | 1009.5 |
| 20260507094026 | 23 | 176 | 17.7 | 25.7 | 0.00 | 0.00 | 0.00 | 43 | 1009.6 |
| 20260507093521 | 23 | 165 | 17.7 | 30.6 | 0.00 | 0.00 | 0.00 | 43 | 1009.7 |
| 20260507093017 | 23 | 167 | 16.1 | 25.7 | 0.00 | 0.00 | 0.00 | 43 | 1009.6 |
| 20260507092518 | 23 | 185 | 16.1 | 24.1 | 0.00 | 0.00 | 0.00 | 44 | 1009.6 |
| 20260507092024 | 23 | 175 | 14.5 | 20.9 | 0.00 | 0.00 | 0.00 | 42 | 1009.6 |
| 20260507091525 | 23 | 180 | 14.5 | 24.1 | 0.00 | 0.00 | 0.00 | 41 | 1009.6 |
| 20260507091026 | 23 | 185 | 14.5 | 27.4 | 0.00 | 0.00 | 0.00 | 42 | 1009.5 |
| 20260507090526 | 23 | 170 | 12.9 | 27.4 | 0.00 | 0.00 | 0.00 | 43 | 1009.6 |
| 20260507090044 | 23 | 179 | 14.5 | 22.5 | 0.00 | 0.00 | 0.00 | 43 | 1009.6 |
| 20260507085523 | 23 | 169 | 12.9 | 24.1 | 0.00 | 0.00 | 0.00 | 45 | 1009.7 |
| 20260507085028 | 22 | 180 | 12.9 | 19.3 | 0.00 | 0.00 | 0.00 | 45 | 1009.8 |
| 20260507084522 | 22 | 174 | 14.5 | 20.9 | 0.00 | 0.00 | 0.00 | 46 | 1009.9 |
| 20260507084019 | 22 | 163 | 16.1 | 25.7 | 0.00 | 0.00 | 0.00 | 46 | 1010.0 |
| 20260507083525 | 22 | 169 | 11.3 | 20.9 | 0.00 | 0.00 | 0.00 | 47 | 1009.9 |
| 20260507083025 | 22 | 176 | 14.5 | 22.5 | 0.00 | 0.00 | 0.00 | 49 | 1010.0 |
| 20260507082519 | 22 | 174 | 17.7 | 24.1 | 0.00 | 0.00 | 0.00 | 49 | 1010.0 |
| 20260507082021 | 21 | 173 | 12.9 | 24.1 | 0.00 | 0.00 | 0.00 | 52 | 1010.2 |
| 20260507081520 | 21 | 170 | 14.5 | 24.1 | 0.00 | 0.00 | 0.00 | 52 | 1010.3 |
| 20260507081046 | 22 | 166 | 12.9 | 25.7 | 0.00 | 0.00 | 0.00 | 52 | 1010.4 |
| 20260507080524 | 22 | 179 | 11.3 | 14.5 | 0.00 | 0.00 | 0.00 | 51 | 1010.5 |
| 20260507080023 | 22 | 171 | 11.3 | 20.9 | 0.00 | 0.00 | 0.00 | 51 | 1010.4 |
| 20260507075527 | 22 | 174 | 12.9 | 17.7 | 0.00 | 0.00 | 0.00 | 51 | 1010.5 |
| 20260507075021 | 22 | 174 | 12.9 | 22.5 | 0.00 | 0.00 | 0.00 | 51 | 1010.6 |
| 20260507074516 | 21 | 178 | 14.5 | 22.5 | 0.00 | 0.00 | 0.00 | 52 | 1010.8 |
| 20260507074040 | 21 | 176 | 12.9 | 25.7 | 0.00 | 0.00 | 0.00 | 52 | 1010.9 |
| 20260507073516 | 21 | 173 | 12.9 | 19.3 | 0.00 | 0.00 | 0.00 | 52 | 1011.0 |
| 20260507073017 | 21 | 178 | 12.9 | 19.3 | 0.00 | 0.00 | 0.00 | 52 | 1011.1 |
| 20260507072523 | 21 | 157 | 11.3 | 16.1 | 0.00 | 0.00 | 0.00 | 53 | 1011.2 |
| 20260507072022 | 21 | 170 | 9.7 | 19.3 | 0.00 | 0.00 | 0.00 | 54 | 1011.2 |
| 20260507071545 | 21 | 170 | 12.9 | 20.9 | 0.00 | 0.00 | 0.00 | 55 | 1011.2 |
| 20260507071018 | 21 | 174 | 11.3 | 20.9 | 0.00 | 0.00 | 0.00 | 56 | 1011.2 |
| 20260507070519 | 21 | 173 | 14.5 | 30.6 | 0.00 | 0.00 | 0.00 | 56 | 1011.2 |
| 20260507070022 | 21 | 173 | 12.9 | 20.9 | 0.00 | 0.00 | 0.00 | 57 | 1011.2 |
| 20260507065542 | 20 | 170 | 11.3 | 17.7 | 0.00 | 0.00 | 0.00 | 57 | 1011.4 |
| 20260507065025 | 20 | 167 | 12.9 | 20.9 | 0.00 | 0.00 | 0.00 | 58 | 1011.5 |
| 20260507064525 | 20 | 173 | 9.7 | 17.7 | 0.00 | 0.00 | 0.00 | 59 | 1011.6 |
| 20260507064019 | 20 | 177 | 11.3 | 22.5 | 0.00 | 0.00 | 0.00 | 61 | 1011.6 |
| 20260507063526 | 20 | 173 | 9.7 | 17.7 | 0.00 | 0.00 | 0.00 | 62 | 1011.6 |
| 20260507063023 | 19 | 175 | 11.3 | 20.9 | 0.00 | 0.00 | 0.00 | 64 | 1011.6 |
| 20260507062518 | 19 | 179 | 8.0 | 12.9 | 0.00 | 0.00 | 0.00 | 66 | 1011.6 |
| 20260507062023 | 18 | 175 | 8.0 | 16.1 | 0.00 | 0.00 | 0.00 | 68 | 1011.6 |
| 20260507061519 | 18 | 172 | 6.4 | 17.7 | 0.00 | 0.00 | 0.00 | 70 | 1011.7 |
| 20260507061021 | 17 | 179 | 6.4 | 12.9 | 0.00 | 0.00 | 0.00 | 73 | 1011.6 |
| 20260507060541 | 17 | 182 | 4.8 | 16.1 | 0.00 | 0.00 | 0.00 | 75 | 1011.6 |
| 20260507060021 | 17 | 187 | 0.0 | 3.2 | 0.00 | 0.00 | 0.00 | 76 | 1011.7 |
| 20260507055515 | 17 | 179 | 3.2 | 6.4 | 0.00 | 0.00 | 0.00 | 77 | 1011.7 |
| 20260507055019 | 17 | 181 | 3.2 | 6.4 | 0.00 | 0.00 | 0.00 | 77 | 1011.8 |
| 20260507054526 | 16 | 179 | 1.6 | 6.4 | 0.00 | 0.00 | 0.00 | 78 | 1011.8 |
| 20260507054022 | 16 | 178 | 1.6 | 6.4 | 0.00 | 0.00 | 0.00 | 78 | 1011.8 |
| 20260507053520 | 17 | 169 | 0.0 | 4.8 | 0.00 | 0.00 | 0.00 | 78 | 1011.8 |
| 20260507053017 | 17 | 141 | 1.6 | 4.8 | 0.00 | 0.00 | 0.00 | 78 | 1012.0 |
| 20260507052524 | 17 | 170 | 3.2 | 9.7 | 0.00 | 0.00 | 0.00 | 78 | 1012.0 |
| 20260507052026 | 17 | 166 | 3.2 | 9.7 | 0.00 | 0.00 | 0.00 | 78 | 1012.1 |
| 20260507051543 | 16 | 178 | 1.6 | 11.3 | 0.00 | 0.00 | 0.00 | 78 | 1012.1 |
| 20260507051022 | 17 | 163 | 4.8 | 14.5 | 0.00 | 0.00 | 0.00 | 78 | 1012.1 |
| 20260507050543 | 17 | 172 | 6.4 | 12.9 | 0.00 | 0.00 | 0.00 | 78 | 1012.1 |
| 20260507050016 | 17 | 173 | 6.4 | 16.1 | 0.00 | 0.00 | 0.00 | 78 | 1012.0 |
| 20260507045542 | 17 | 184 | 6.4 | 12.9 | 0.00 | 0.00 | 0.00 | 78 | 1011.9 |
| 20260507045024 | 17 | 178 | 6.4 | 12.9 | 0.00 | 0.00 | 0.00 | 77 | 1012.1 |
| 20260507044525 | 16 | 172 | 1.6 | 6.4 | 0.00 | 0.00 | 0.00 | 77 | 1012.2 |
| 20260507044042 | 16 | 187 | 1.6 | 4.8 | 0.00 | 0.00 | 0.00 | 78 | 1012.2 |
| 20260507043525 | 16 | 176 | 3.2 | 8.0 | 0.00 | 0.00 | 0.00 | 77 | 1012.1 |
| 20260507043043 | 16 | 173 | 1.6 | 6.4 | 0.00 | 0.00 | 0.00 | 77 | 1012.1 |
| 20260507042524 | 17 | 162 | 1.6 | 6.4 | 0.00 | 0.00 | 0.00 | 77 | 1012.3 |
| 20260507042020 | 17 | 168 | 4.8 | 9.7 | 0.00 | 0.00 | 0.00 | 77 | 1012.3 |
| 20260507041525 | 17 | 182 | 6.4 | 12.9 | 0.00 | 0.00 | 0.00 | 76 | 1012.2 |
| 20260507041017 | 17 | 178 | 4.8 | 12.9 | 0.00 | 0.00 | 0.00 | 76 | 1012.3 |
| 20260507040545 | 17 | 179 | 3.2 | 9.7 | 0.00 | 0.00 | 0.00 | 75 | 1012.3 |
| 20260507040025 | 17 | 173 | 6.4 | 11.3 | 0.00 | 0.00 | 0.00 | 75 | 1012.1 |
| 20260507035558 | 17 | 168 | 4.8 | 8.0 | 0.00 | 0.00 | 0.00 | 75 | 1012.0 |
| 20260507035040 | 17 | 175 | 4.8 | 11.3 | 0.00 | 0.00 | 0.00 | 76 | 1011.9 |
| 20260507034525 | 17 | 178 | 4.8 | 11.3 | 0.00 | 0.00 | 0.00 | 77 | 1011.9 |
| 20260507034020 | 16 | 179 | 6.4 | 12.9 | 0.00 | 0.00 | 0.00 | 78 | 1011.8 |
| 20260507033519 | 16 | 179 | 4.8 | 8.0 | 0.00 | 0.00 | 0.00 | 78 | 1011.8 |
| 20260507033025 | 17 | 174 | 1.6 | 6.4 | 0.00 | 0.00 | 0.00 | 78 | 1011.8 |
| 20260507032520 | 17 | 178 | 1.6 | 3.2 | 0.00 | 0.00 | 0.00 | 78 | 1011.8 |
| 20260507032019 | 17 | 180 | 1.6 | 4.8 | 0.00 | 0.00 | 0.00 | 78 | 1011.7 |
| 20260507031543 | 17 | 172 | 0.0 | 1.6 | 0.00 | 0.00 | 0.00 | 79 | 1011.8 |
| 20260507031017 | 17 | 158 | 0.0 | 1.6 | 0.00 | 0.00 | 0.00 | 79 | 1011.8 |
| 20260507030522 | 17 | 0.0 | 0.0 | 0.00 | 0.00 | 0.00 | 79 | 1011.9 | |
| 20260507030019 | 17 | 171 | 0.0 | 3.2 | 0.00 | 0.00 | 0.00 | 80 | 1011.7 |
| 20260507025517 | 17 | 180 | 0.0 | 1.6 | 0.00 | 0.00 | 0.00 | 80 | 1011.8 |
| 20260507025025 | 17 | 178 | 1.6 | 4.8 | 0.00 | 0.00 | 0.00 | 80 | 1011.8 |
| 20260507024522 | 17 | 172 | 1.6 | 4.8 | 0.00 | 0.00 | 0.00 | 80 | 1011.6 |
| 20260507024024 | 17 | 173 | 1.6 | 3.2 | 0.00 | 0.00 | 0.00 | 80 | 1011.6 |
| 20260507023519 | 17 | 169 | 1.6 | 3.2 | 0.00 | 0.00 | 0.00 | 80 | 1011.7 |
| 20260507023016 | 17 | 176 | 3.2 | 4.8 | 0.00 | 0.00 | 0.00 | 80 | 1011.8 |
| 20260507022524 | 16 | 174 | 3.2 | 6.4 | 0.00 | 0.00 | 0.00 | 80 | 1011.7 |
| 20260507022016 | 17 | 175 | 0.0 | 3.2 | 0.00 | 0.00 | 0.00 | 80 | 1012.0 |
| 20260507021521 | 17 | 184 | 1.6 | 8.0 | 0.00 | 0.00 | 0.00 | 80 | 1012.1 |
| 20260507021022 | 17 | 178 | 0.0 | 3.2 | 0.00 | 0.00 | 0.00 | 80 | 1012.1 |
| 20260507020521 | 17 | 51 | 0.0 | 1.6 | 0.00 | 0.00 | 0.00 | 80 | 1012.1 |
| 20260507020023 | 17 | 166 | 0.0 | 3.2 | 0.00 | 0.00 | 0.00 | 80 | 1012.1 |
| 20260507015541 | 17 | 177 | 3.2 | 8.0 | 0.00 | 0.00 | 0.00 | 80 | 1012.0 |
| 20260507015026 | 17 | 185 | 3.2 | 8.0 | 0.00 | 0.00 | 0.00 | 80 | 1012.0 |
| 20260507014538 | 17 | 181 | 3.2 | 8.0 | 0.00 | 0.00 | 0.00 | 80 | 1011.9 |
| 20260507014016 | 17 | 175 | 4.8 | 9.7 | 0.00 | 0.00 | 0.00 | 80 | 1011.9 |
| 20260507013525 | 17 | 173 | 6.4 | 9.7 | 0.00 | 0.00 | 0.00 | 80 | 1012.2 |
| 20260507013017 | 17 | 180 | 3.2 | 6.4 | 0.00 | 0.00 | 0.00 | 80 | 1012.3 |
| 20260507012518 | 17 | 177 | 3.2 | 6.4 | 0.00 | 0.00 | 0.00 | 80 | 1012.4 |
| 20260507012022 | 17 | 178 | 4.8 | 8.0 | 0.00 | 0.00 | 0.00 | 80 | 1012.3 |
| 20260507011520 | 17 | 175 | 4.8 | 8.0 | 0.00 | 0.00 | 0.00 | 80 | 1012.3 |
| 20260507011024 | 17 | 174 | 6.4 | 9.7 | 0.00 | 0.00 | 0.00 | 80 | 1012.4 |
| 20260507010525 | 16 | 175 | 6.4 | 9.7 | 0.00 | 0.00 | 0.00 | 80 | 1012.5 |
| 20260507010021 | 16 | 177 | 8.0 | 14.5 | 0.00 | 0.00 | 0.00 | 80 | 1012.4 |
| 20260507005517 | 17 | 185 | 8.0 | 12.9 | 0.00 | 0.00 | 0.00 | 80 | 1012.5 |
| 20260507005023 | 17 | 176 | 6.4 | 12.9 | 0.00 | 0.00 | 0.00 | 80 | 1012.4 |
| 20260507004521 | 17 | 173 | 4.8 | 11.3 | 0.00 | 0.00 | 0.00 | 80 | 1012.5 |
| 20260507004017 | 17 | 173 | 4.8 | 8.0 | 0.00 | 0.00 | 0.00 | 80 | 1012.6 |
| 20260507003537 | 17 | 173 | 4.8 | 6.4 | 0.00 | 0.00 | 0.00 | 81 | 1012.7 |
| 20260507003025 | 17 | 178 | 3.2 | 4.8 | 0.00 | 0.00 | 0.00 | 81 | 1012.7 |
| 20260507002520 | 17 | 179 | 3.2 | 9.7 | 0.00 | 0.00 | 0.00 | 81 | 1012.8 |
| 20260507002039 | 17 | 175 | 1.6 | 4.8 | 0.00 | 0.00 | 0.00 | 81 | 1012.8 |
| 20260507001529 | 17 | 176 | 3.2 | 6.4 | 0.00 | 0.00 | 0.00 | 81 | 1012.8 |
| 20260507001020 | 17 | 170 | 3.2 | 9.7 | 0.00 | 0.00 | 0.00 | 81 | 1012.8 |
| 20260507000618 | 17 | 175 | 4.8 | 8.0 | 0.00 | 0.00 | 0.00 | 81 | 1012.8 |
| 20260507000024 | 17 | 178 | 6.4 | 12.9 | 0.00 | 0.00 | 0.00 | 81 | 1012.8 |
| 20260506235527 | 17 | 173 | 6.4 | 14.5 | 0.00 | 0.00 | 0.00 | 81 | 1012.7 |
| 20260506235028 | 17 | 177 | 6.4 | 11.3 | 0.00 | 0.00 | 0.00 | 81 | 1012.8 |
| 20260506234537 | 17 | 176 | 4.8 | 11.3 | 0.00 | 0.00 | 0.00 | 81 | 1012.9 |
| 20260506234025 | 17 | 175 | 6.4 | 12.9 | 0.00 | 0.00 | 0.00 | 81 | 1012.9 |
| 20260506233519 | 17 | 176 | 6.4 | 11.3 | 0.00 | 0.00 | 0.00 | 81 | 1012.9 |
| 20260506233036 | 17 | 171 | 8.0 | 11.3 | 0.00 | 0.00 | 0.00 | 81 | 1012.8 |
| 20260506232526 | 17 | 169 | 9.7 | 14.5 | 0.00 | 0.00 | 0.00 | 81 | 1012.7 |
| 20260506232025 | 17 | 183 | 9.7 | 16.1 | 0.00 | 0.00 | 0.00 | 81 | 1012.7 |
| 20260506231518 | 17 | 171 | 11.3 | 19.3 | 0.00 | 0.00 | 0.00 | 80 | 1012.6 |
| 20260506231026 | 17 | 186 | 11.3 | 17.7 | 0.00 | 0.00 | 0.00 | 80 | 1012.6 |
| 20260506230529 | 17 | 174 | 11.3 | 20.9 | 0.00 | 0.00 | 0.00 | 80 | 1012.5 |
| 20260506230028 | 17 | 174 | 12.9 | 25.7 | 0.00 | 0.00 | 0.00 | 80 | 1012.4 |
| 20260506225525 | 17 | 173 | 14.5 | 20.9 | 0.00 | 0.00 | 0.00 | 80 | 1012.4 |
| 20260506225041 | 17 | 171 | 12.9 | 24.1 | 0.00 | 0.00 | 0.00 | 80 | 1012.4 |
| 20260506224526 | 17 | 177 | 12.9 | 20.9 | 0.00 | 0.00 | 0.00 | 80 | 1012.4 |
| 20260506224022 | 17 | 181 | 12.9 | 24.1 | 0.00 | 0.00 | 0.00 | 80 | 1012.3 |
| 20260506223525 | 17 | 184 | 12.9 | 24.1 | 0.00 | 0.00 | 0.00 | 80 | 1012.3 |
| 20260506223025 | 17 | 177 | 9.7 | 17.7 | 0.00 | 0.00 | 0.00 | 80 | 1012.2 |
| 20260506222517 | 17 | 187 | 8.0 | 12.9 | 0.00 | 0.00 | 0.00 | 80 | 1012.2 |
| 20260506222021 | 17 | 173 | 9.7 | 16.1 | 0.00 | 0.00 | 0.00 | 80 | 1012.3 |
| 20260506221515 | 17 | 179 | 9.7 | 19.3 | 0.00 | 0.00 | 0.00 | 80 | 1012.2 |
| 20260506221026 | 17 | 170 | 11.3 | 19.3 | 0.00 | 0.00 | 0.00 | 80 | 1012.0 |
| 20260506220542 | 17 | 184 | 11.3 | 22.5 | 0.00 | 0.00 | 0.00 | 80 | 1011.9 |
| 20260506220026 | 17 | 171 | 9.7 | 16.1 | 0.00 | 0.00 | 0.00 | 81 | 1012.0 |
| 20260506215523 | 17 | 174 | 9.7 | 16.1 | 0.00 | 0.00 | 0.00 | 81 | 1012.0 |
| 20260506215042 | 17 | 175 | 9.7 | 19.3 | 0.00 | 0.00 | 0.00 | 81 | 1012.0 |
| 20260506214602 | 17 | 179 | 11.3 | 16.1 | 0.00 | 0.00 | 0.00 | 81 | 1011.9 |
| 20260506214024 | 17 | 172 | 9.7 | 19.3 | 0.00 | 0.00 | 0.00 | 81 | 1011.8 |
| 20260506213539 | 16 | 180 | 8.0 | 14.5 | 0.00 | 0.00 | 0.00 | 81 | 1011.7 |
| 20260506213026 | 16 | 177 | 8.0 | 14.5 | 0.00 | 0.00 | 0.00 | 82 | 1011.6 |
| 20260506212542 | 16 | 179 | 4.8 | 8.0 | 0.00 | 0.00 | 0.00 | 82 | 1011.6 |